Tracking 35048 objects as of 19-Aug-2026
HD Live streaming from Space Station
objects crossing your sky now

OBJECT A

Track OBJECT A now!
10-day predictions
OBJECT A is classified as:


NORAD ID: 53346
Int'l Code: 2022-090A
Launch date: August 4, 2022
Source: People's Republic of China (PRC)
Launch site: Taiyaun Space Center, China (TSC)

Uplink (MHz):
Downlink (MHz): 400.130/2210.200
Beacon (MHz):
Mode: LoRa FM
Call sign:
Status: Unknown


Note: This is a ROCKET BODY
Your satellite tracking list
Your tracking list is empty




NASA's NSSDC Master Catalog

Two Line Element Set (TLE):
1 53346U 22090A   26230.97195723  .00002987  00000-0  13609-3 0  9998
2 53346  97.3087 297.2830 0002814 345.1552  14.9601 15.21418897224351
Source of the keplerian elements: AFSPC